STARLINK-37501, 69296

Orbit data source: Space-Track

STARLINK-37501, 69296 is a payload satellite owned by SpaceX/Seattle (US) in SSO that was launched on Sat, 30 May 2026 UTC via an FALCON 9 launch vehicle from the Air Force Western Test Range (AFWTR). Payload-class satellites include a variety of spacecraft equipped with specific instruments for various scientific and technological missions. These include communications satellites like Starlink; space stations such as the ISS; scientific satellites like the Hubble; Earth observation satellites from companies like Planet Labs, Umbra, and HawkEye 360; GPS; miniature CubeSats for education and research; and military/defense satellites.

Loading next visibility...
Identifier
69296, 2026-119A
Orbit
SSO
Country
Flag of USUS
Related business
Manufacturer
SpaceX/Seattle
Mission
Operational spacecraft
Bus & Motor
STARLINK V2MO, Unknown motor
Mass
575 kg wet, ~530 kg dry
Launch date (UTC)
2026-05-30 (2 months ago)
Launch vehicle
FALCON 9
Launch site
Air Force Western Test Range (AFWTR)
Object type
Payload
Rocket body
Debris
Shape & HBR
Unknown shape, 17.7 m
Radar Cross Section
Large (>1 m²)

Expand to show TLE details & history
Last TLE update: 15 hours ago

TLE from 15 hours ago
0 STARLINK-37501
1 69296U 26119A   26202.05729028  .00011276  00000-0  35104-3 0  9999
2 69296  97.2852 227.6164 0001304 104.9922 255.1465 15.33448513  9240
Epoch: 2026-07-21T01:22Z
TLE epoch observation values (Epoch: 2026-07-21T01:22:29.880Z)
Latitude
-0.00002°
Longitude
-91.84055°
Altitude
468.874 km
Speed
7.632 km/s
True Right ascension
15h 10m 27s
True Declination
0° 00' 00"
Sunlit
Object was in daylight at epoch
Visualization orbit readout
Latitude
Unknown
Longitude
Unknown
Altitude
Unknown
Speed
Unknown
Apparent Right ascension
Unknown
Apparent Declination
Unknown
Sunlit
N/A
Visualization observer readout
Local Sidereal Time
05:03:07
Azimuth
Unknown
Elevation
Unknown
Doppler factor
Unknown
Orbital elements
Apogee altitude
463.368 km
Perigee altitude
461.583 km
Semi-major axis
6,840.612 km
Eccentricity
0.00013
Inclination
97.2852°
RAAN
227.6164°
Arg. of periapsis
104.9922°
True anomaly
255.13206°
Mean anomaly
255.1465°
Eccentric anomaly
255.13928°
Mean motion
3.8362 °/min
Orbital period
93.84 mins
BSTAR
0.00035104
Loading maneuver chart data...
Computing Atmospheric mass density...
Loading historical data...
Loading historical data...
Loading historical data...
Loading historical data...
Loading historical data...
Loading historical data...
Loading historical data...

Documentation

Showing up to 5 results
|